Time,TemperatureF,DewpointF,PressureIn,WindDirection,WindDirectionDegrees,WindSpeedMPH,WindSpeedGustMPH,Humidity,HourlyPrecipIn,Conditions,Clouds,dailyrainin,SoftwareType,DateUTC
2013-09-01 00:00:00,63.4,62.5,29.80,West,281,0.0,0.0,97,0.00,,,0.00,Wunderground v.1.15,2013-09-01 05:00:00,
2013-09-01 00:10:00,63.5,62.6,29.80,West,281,0.0,0.0,97,0.00,,,0.00,Wunderground v.1.15,2013-09-01 05:10:00,
2013-09-01 00:20:00,64.1,63.2,29.79,West,281,0.0,0.0,97,0.00,,,0.00,Wunderground v.1.15,2013-09-01 05:20:00,
2013-09-01 00:25:00,64.3,63.4,29.79,West,281,0.0,0.0,97,0.00,,,0.00,Wunderground v.1.15,2013-09-01 05:25:00,
2013-09-01 00:30:00,64.4,63.5,29.79,West,281,0.0,0.0,97,0.00,,,0.00,Wunderground v.1.15,2013-09-01 05:30:00,
2013-09-01 00:40:00,64.5,63.6,29.79,West,281,0.0,0.0,97,0.00,,,0.00,Wunderground v.1.15,2013-09-01 05:40:00,
2013-09-01 00:50:00,64.6,63.7,29.80,West,281,0.0,0.0,97,0.00,,,0.00,Wunderground v.1.15,2013-09-01 05:50:00,
2013-09-01 00:55:00,64.4,63.5,29.80,West,281,0.0,0.0,97,0.00,,,0.00,Wunderground v.1.15,2013-09-01 05:55:00,
2013-09-01 01:00:00,64.2,63.3,29.80,West,281,0.0,0.0,97,0.00,,,0.00,Wunderground v.1.15,2013-09-01 06:00:00,
2013-09-01 01:10:00,64.1,63.2,29.79,West,281,0.0,0.0,97,0.00,,,0.00,Wunderground v.1.15,2013-09-01 06:10:00,
2013-09-01 01:20:00,64.1,63.2,29.80,West,281,0.0,0.0,97,0.00,,,0.00,Wunderground v.1.15,2013-09-01 06:20:00,
2013-09-01 01:25:00,64.0,63.1,29.80,West,281,0.0,0.0,97,0.00,,,0.00,Wunderground v.1.15,2013-09-01 06:25:00,
2013-09-01 01:30:00,64.0,63.1,29.79,West,281,0.0,0.0,97,0.00,,,0.00,Wunderground v.1.15,2013-09-01 06:30:00,
2013-09-01 01:40:00,63.8,62.9,29.79,West,281,0.0,0.0,97,0.00,,,0.00,Wunderground v.1.15,2013-09-01 06:40:00,
2013-09-01 01:50:00,63.8,62.9,29.79,West,281,0.0,0.0,97,0.00,,,0.00,Wunderground v.1.15,2013-09-01 06:50:00,
2013-09-01 01:55:00,63.9,63.0,29.79,West,281,0.0,0.0,97,0.00,,,0.00,Wunderground v.1.15,2013-09-01 06:55:00,
2013-09-01 02:05:00,63.6,62.7,29.80,West,281,0.0,0.0,97,0.00,,,0.00,Wunderground v.1.15,2013-09-01 07:05:00,
2013-09-01 02:10:00,63.6,62.7,29.81,West,281,0.0,0.0,97,0.00,,,0.00,Wunderground v.1.15,2013-09-01 07:10:00,
2013-09-01 02:20:00,63.8,62.9,29.80,West,281,0.0,0.0,97,0.00,,,0.00,Wunderground v.1.15,2013-09-01 07:20:00,
2013-09-01 02:30:00,63.8,62.9,29.79,West,281,0.0,0.0,97,0.00,,,0.00,Wunderground v.1.15,2013-09-01 07:30:00,
2013-09-01 02:40:00,63.5,62.6,29.78,West,281,0.0,0.0,97,0.00,,,0.00,Wunderground v.1.15,2013-09-01 07:40:00,
2013-09-01 02:50:00,63.4,62.8,29.78,West,281,0.0,0.0,98,0.00,,,0.00,Wunderground v.1.15,2013-09-01 07:50:00,
2013-09-01 02:55:00,63.4,62.8,29.78,West,281,0.0,0.0,98,0.00,,,0.00,Wunderground v.1.15,2013-09-01 07:55:00,
2013-09-01 03:00:00,63.4,62.8,29.78,West,281,0.0,0.0,98,0.00,,,0.00,Wunderground v.1.15,2013-09-01 08:00:00,
2013-09-01 03:10:00,63.3,62.7,29.76,West,281,0.0,0.0,98,0.00,,,0.00,Wunderground v.1.15,2013-09-01 08:10:00,
2013-09-01 03:20:00,63.1,62.2,29.76,West,281,0.0,0.0,97,0.00,,,0.00,Wunderground v.1.15,2013-09-01 08:20:00,
2013-09-01 03:25:00,63.1,62.5,29.76,West,281,0.0,0.0,98,0.00,,,0.00,Wunderground v.1.15,2013-09-01 08:25:00,
2013-09-01 03:30:00,63.2,62.6,29.77,West,281,0.0,0.0,98,0.00,,,0.00,Wunderground v.1.15,2013-09-01 08:30:00,
2013-09-01 03:40:00,63.4,62.8,29.76,West,281,0.0,0.0,98,0.00,,,0.00,Wunderground v.1.15,2013-09-01 08:40:00,
2013-09-01 03:50:00,63.3,62.7,29.76,West,281,0.0,0.0,98,0.00,,,0.00,Wunderground v.1.15,2013-09-01 08:50:00,
2013-09-01 04:00:00,63.2,62.6,29.77,West,281,0.0,0.0,98,0.00,,,0.00,Wunderground v.1.15,2013-09-01 09:00:00,
2013-09-01 04:10:00,63.5,62.9,29.77,West,281,0.0,0.0,98,0.00,,,0.00,Wunderground v.1.15,2013-09-01 09:10:00,
2013-09-01 04:20:00,63.4,62.8,29.77,West,281,0.0,0.0,98,0.00,,,0.00,Wunderground v.1.15,2013-09-01 09:20:00,
2013-09-01 04:25:00,63.3,62.7,29.77,West,281,0.0,0.0,98,0.00,,,0.00,Wunderground v.1.15,2013-09-01 09:25:00,
2013-09-01 04:30:00,63.3,62.7,29.77,West,281,0.0,0.0,98,0.00,,,0.00,Wunderground v.1.15,2013-09-01 09:30:00,
2013-09-01 04:40:00,62.9,62.3,29.77,West,281,0.0,0.0,98,0.00,,,0.00,Wunderground v.1.15,2013-09-01 09:40:00,
2013-09-01 04:50:00,62.6,62.0,29.77,West,281,0.0,0.0,98,0.00,,,0.00,Wunderground v.1.15,2013-09-01 09:50:00,
2013-09-01 04:55:00,62.5,61.9,29.77,West,281,0.0,0.0,98,0.00,,,0.00,Wunderground v.1.15,2013-09-01 09:55:00,
2013-09-01 05:00:00,62.2,61.6,29.77,West,281,0.0,0.0,98,0.00,,,0.00,Wunderground v.1.15,2013-09-01 10:00:00,
2013-09-01 05:10:00,61.8,61.2,29.76,West,281,0.0,0.0,98,0.00,,,0.00,Wunderground v.1.15,2013-09-01 10:10:00,
2013-09-01 05:20:00,61.5,60.9,29.76,West,281,0.0,0.0,98,0.00,,,0.00,Wunderground v.1.15,2013-09-01 10:20:00,
2013-09-01 05:30:00,61.2,60.6,29.75,West,281,0.0,0.0,98,0.00,,,0.00,Wunderground v.1.15,2013-09-01 10:30:00,
2013-09-01 05:40:00,61.1,60.5,29.75,West,281,0.0,0.0,98,0.00,,,0.00,Wunderground v.1.15,2013-09-01 10:40:00,
2013-09-01 05:50:00,61.0,60.4,29.75,West,281,0.0,0.0,98,0.00,,,0.00,Wunderground v.1.15,2013-09-01 10:50:00,
2013-09-01 05:55:00,61.0,60.4,29.75,West,281,0.0,0.0,98,0.00,,,0.00,Wunderground v.1.15,2013-09-01 10:55:00,
2013-09-01 06:00:00,60.9,60.3,29.76,West,281,0.0,0.0,98,0.00,,,0.00,Wunderground v.1.15,2013-09-01 11:00:00,
2013-09-01 06:10:00,60.9,60.3,29.76,West,281,0.0,0.0,98,0.00,,,0.00,Wunderground v.1.15,2013-09-01 11:10:00,
2013-09-01 06:20:00,60.8,60.2,29.77,West,281,0.0,0.0,98,0.00,,,0.00,Wunderground v.1.15,2013-09-01 11:20:00,
2013-09-01 06:25:00,60.7,60.1,29.77,West,281,0.0,0.0,98,0.00,,,0.00,Wunderground v.1.15,2013-09-01 11:25:00,
2013-09-01 06:35:00,60.8,60.2,29.76,West,281,0.0,0.0,98,0.00,,,0.00,Wunderground v.1.15,2013-09-01 11:35:00,
2013-09-01 06:40:00,60.8,60.2,29.77,West,281,0.0,0.0,98,0.00,,,0.00,Wunderground v.1.15,2013-09-01 11:40:00,
2013-09-01 06:50:00,60.9,60.3,29.76,West,281,0.0,0.0,98,0.00,,,0.00,Wunderground v.1.15,2013-09-01 11:50:00,
2013-09-01 07:00:00,60.8,60.2,29.76,West,281,0.0,0.0,98,0.00,,,0.00,Wunderground v.1.15,2013-09-01 12:00:00,
2013-09-01 07:10:00,60.8,60.2,29.76,West,281,0.0,0.0,98,0.00,,,0.00,Wunderground v.1.15,2013-09-01 12:10:00,
2013-09-01 07:20:00,60.8,60.2,29.76,West,281,0.0,0.0,98,0.00,,,0.00,Wunderground v.1.15,2013-09-01 12:20:00,
2013-09-01 07:25:00,60.9,60.3,29.76,West,281,0.0,0.0,98,0.00,,,0.00,Wunderground v.1.15,2013-09-01 12:25:00,
2013-09-01 07:30:00,61.0,60.4,29.76,West,281,0.0,0.0,98,0.00,,,0.00,Wunderground v.1.15,2013-09-01 12:30:00,
2013-09-01 07:40:00,61.5,60.9,29.76,West,281,0.0,0.0,98,0.00,,,0.00,Wunderground v.1.15,2013-09-01 12:40:00,
2013-09-01 07:50:00,62.3,62.0,29.75,West,281,0.0,0.0,99,0.00,,,0.00,Wunderground v.1.15,2013-09-01 12:50:00,
2013-09-01 07:55:00,62.9,62.6,29.76,West,281,0.0,0.0,99,0.00,,,0.00,Wunderground v.1.15,2013-09-01 12:55:00,
2013-09-01 08:00:00,63.2,62.9,29.76,West,281,0.0,0.0,99,0.00,,,0.00,Wunderground v.1.15,2013-09-01 13:00:00,
2013-09-01 08:10:00,63.8,63.5,29.76,West,281,0.0,0.0,99,0.00,,,0.00,Wunderground v.1.15,2013-09-01 13:10:00,
2013-09-01 08:20:00,64.4,64.1,29.76,West,281,0.0,0.0,99,0.00,,,0.00,Wunderground v.1.15,2013-09-01 13:20:00,
2013-09-01 08:30:00,64.9,64.6,29.76,West,281,0.0,0.0,99,0.00,,,0.00,Wunderground v.1.15,2013-09-01 13:30:00,
2013-09-01 08:40:00,65.3,65.0,29.77,West,281,0.0,0.0,99,0.00,,,0.00,Wunderground v.1.15,2013-09-01 13:40:00,
2013-09-01 08:50:00,65.6,65.3,29.77,West,281,0.0,0.0,99,0.00,,,0.00,Wunderground v.1.15,2013-09-01 13:50:00,
2013-09-01 08:55:00,65.7,65.1,29.78,West,281,0.0,0.0,98,0.00,,,0.00,Wunderground v.1.15,2013-09-01 13:55:00,
2013-09-01 09:00:00,65.9,65.3,29.79,West,281,0.0,0.0,98,0.00,,,0.00,Wunderground v.1.15,2013-09-01 14:00:00,
2013-09-01 09:10:00,66.5,65.9,29.79,West,281,0.0,0.0,98,0.00,,,0.00,Wunderground v.1.15,2013-09-01 14:10:00,
2013-09-01 09:20:00,67.3,67.0,29.79,West,281,0.0,0.0,99,0.00,,,0.00,Wunderground v.1.15,2013-09-01 14:20:00,
2013-09-01 09:25:00,67.7,67.1,29.79,West,281,0.0,0.0,98,0.00,,,0.00,Wunderground v.1.15,2013-09-01 14:25:00,
2013-09-01 09:30:00,68.2,67.6,29.79,NW,319,0.0,0.0,98,0.00,,,0.00,Wunderground v.1.15,2013-09-01 14:30:00,
2013-09-01 09:40:00,69.2,68.6,29.79,NW,310,0.0,0.0,98,0.00,,,0.00,Wunderground v.1.15,2013-09-01 14:40:00,
2013-09-01 09:50:00,69.4,68.2,29.78,NW,309,0.0,0.0,96,0.00,,,0.00,Wunderground v.1.15,2013-09-01 14:50:00,
2013-09-01 09:55:00,69.6,68.4,29.78,NW,309,0.0,0.0,96,0.00,,,0.00,Wunderground v.1.15,2013-09-01 14:55:00,
2013-09-01 10:05:00,70.3,68.8,29.78,SSW,210,0.0,0.0,95,0.00,,,0.00,Wunderground v.1.15,2013-09-01 15:05:00,
2013-09-01 10:10:00,70.4,68.6,29.78,SSW,210,0.0,0.0,94,0.00,,,0.00,Wunderground v.1.15,2013-09-01 15:10:00,
2013-09-01 10:20:00,70.8,69.0,29.78,SSW,210,0.0,0.0,94,0.00,,,0.00,Wunderground v.1.15,2013-09-01 15:20:00,
2013-09-01 10:25:00,71.2,69.4,29.77,SSW,210,0.0,0.0,94,0.00,,,0.00,Wunderground v.1.15,2013-09-01 15:25:00,
2013-09-01 10:30:00,71.9,69.8,29.77,SSW,210,0.0,0.0,93,0.00,,,0.00,Wunderground v.1.15,2013-09-01 15:30:00,
2013-09-01 10:40:00,73.0,70.2,29.77,SSW,210,0.0,0.0,91,0.00,,,0.00,Wunderground v.1.15,2013-09-01 15:40:00,
2013-09-01 10:50:00,73.3,69.9,29.77,SW,217,0.0,0.0,89,0.00,,,0.00,Wunderground v.1.15,2013-09-01 15:50:00,
2013-09-01 10:55:00,73.6,70.5,29.76,SW,217,0.0,0.0,90,0.00,,,0.00,Wunderground v.1.15,2013-09-01 15:55:00,
2013-09-01 11:05:00,73.9,70.5,29.76,SW,217,0.0,0.0,89,0.00,,,0.00,Wunderground v.1.15,2013-09-01 16:05:00,
2013-09-01 11:10:00,74.2,71.1,29.75,SW,217,0.0,0.0,90,0.00,,,0.00,Wunderground v.1.15,2013-09-01 16:10:00,
2013-09-01 11:20:00,74.7,70.9,29.75,SW,227,0.0,0.0,88,0.00,,,0.00,Wunderground v.1.15,2013-09-01 16:20:00,
2013-09-01 11:30:00,75.6,71.5,29.75,SW,231,0.0,0.0,87,0.00,,,0.00,Wunderground v.1.15,2013-09-01 16:30:00,
2013-09-01 11:40:00,76.5,71.7,29.75,SW,232,0.0,0.0,85,0.00,,,0.00,Wunderground v.1.15,2013-09-01 16:40:00,
2013-09-01 11:50:00,77.1,72.2,29.74,SW,232,0.0,0.0,85,0.00,,,0.00,Wunderground v.1.15,2013-09-01 16:50:00,
2013-09-01 11:55:00,77.1,71.9,29.75,West,281,0.0,0.0,84,0.00,,,0.00,Wunderground v.1.15,2013-09-01 16:55:00,
2013-09-01 12:00:00,77.5,71.9,29.74,West,281,0.0,0.0,83,0.00,,,0.00,Wunderground v.1.15,2013-09-01 17:00:00,
2013-09-01 12:10:00,77.9,72.3,29.74,West,281,0.0,0.0,83,0.00,,,0.00,Wunderground v.1.15,2013-09-01 17:10:00,
2013-09-01 12:20:00,76.9,71.7,29.74,WNW,298,0.0,0.0,84,0.00,,,0.00,Wunderground v.1.15,2013-09-01 17:20:00,
2013-09-01 12:30:00,76.3,71.8,29.74,WSW,242,0.0,0.0,86,0.00,,,0.00,Wunderground v.1.15,2013-09-01 17:30:00,
2013-09-01 12:40:00,76.8,71.9,29.74,WSW,242,0.0,0.0,85,0.00,,,0.00,Wunderground v.1.15,2013-09-01 17:40:00,
2013-09-01 12:50:00,78.1,72.5,29.74,NW,317,0.0,0.0,83,0.00,,,0.00,Wunderground v.1.15,2013-09-01 17:50:00,
2013-09-01 12:55:00,78.5,72.2,29.74,South,180,0.0,0.0,81,0.00,,,0.00,Wunderground v.1.15,2013-09-01 17:55:00,
2013-09-01 13:00:00,78.9,72.6,29.73,South,180,0.0,0.0,81,0.00,,,0.00,Wunderground v.1.15,2013-09-01 18:00:00,
2013-09-01 13:10:00,79.1,72.4,29.74,South,180,0.0,0.0,80,0.00,,,0.00,Wunderground v.1.15,2013-09-01 18:10:00,
2013-09-01 13:20:00,78.5,72.9,29.73,South,180,0.0,0.0,83,0.00,,,0.00,Wunderground v.1.15,2013-09-01 18:20:00,
2013-09-01 13:25:00,78.6,72.6,29.73,South,180,0.0,0.0,82,0.00,,,0.00,Wunderground v.1.15,2013-09-01 18:25:00,
2013-09-01 13:30:00,79.0,73.0,29.73,South,180,0.0,0.0,82,0.00,,,0.00,Wunderground v.1.15,2013-09-01 18:30:00,
2013-09-01 13:40:00,78.1,71.8,29.73,SSW,192,0.0,0.0,81,0.00,,,0.00,Wunderground v.1.15,2013-09-01 18:40:00,
2013-09-01 13:50:00,77.7,72.1,29.73,SSW,192,0.0,0.0,83,0.00,,,0.00,Wunderground v.1.15,2013-09-01 18:50:00,
2013-09-01 14:00:00,78.4,72.4,29.72,SSW,192,0.0,0.0,82,0.00,,,0.00,Wunderground v.1.15,2013-09-01 19:00:00,
2013-09-01 14:10:00,79.6,73.6,29.72,SSW,192,0.0,0.0,82,0.00,,,0.00,Wunderground v.1.15,2013-09-01 19:10:00,
2013-09-01 14:20:00,80.2,72.7,29.72,SSW,192,0.0,0.0,78,0.00,,,0.00,Wunderground v.1.15,2013-09-01 19:20:00,
2013-09-01 14:25:00,80.3,73.6,29.72,SSW,192,0.0,0.0,80,0.00,,,0.00,Wunderground v.1.15,2013-09-01 19:25:00,
2013-09-01 14:30:00,80.6,73.5,29.71,SSW,192,0.0,0.0,79,0.00,,,0.00,Wunderground v.1.15,2013-09-01 19:30:00,
2013-09-01 14:40:00,81.8,73.1,29.70,West,275,0.0,0.0,75,0.00,,,0.00,Wunderground v.1.15,2013-09-01 19:40:00,
2013-09-01 14:50:00,81.9,74.0,29.70,WSW,253,0.0,0.0,77,0.00,,,0.00,Wunderground v.1.15,2013-09-01 19:50:00,
2013-09-01 15:00:00,82.3,73.2,29.70,NW,313,0.0,0.0,74,0.00,,,0.00,Wunderground v.1.15,2013-09-01 20:00:00,
2013-09-01 15:10:00,82.3,74.0,29.71,WNW,288,0.0,0.0,76,0.00,,,0.00,Wunderground v.1.15,2013-09-01 20:10:00,
2013-09-01 15:20:00,82.2,73.9,29.71,West,259,0.0,0.0,76,0.00,,,0.00,Wunderground v.1.15,2013-09-01 20:20:00,
2013-09-01 15:25:00,82.4,74.1,29.71,NNE,29,0.0,1.0,76,0.00,,,0.00,Wunderground v.1.15,2013-09-01 20:25:00,
2013-09-01 15:35:00,82.5,74.2,29.71,NE,44,0.0,0.0,76,0.00,,,0.00,Wunderground v.1.15,2013-09-01 20:35:00,
2013-09-01 15:40:00,82.5,74.6,29.71,West,280,0.0,0.0,77,0.00,,,0.00,Wunderground v.1.15,2013-09-01 20:40:00,
2013-09-01 15:50:00,82.9,74.2,29.70,NE,45,0.0,0.0,75,0.00,,,0.00,Wunderground v.1.15,2013-09-01 20:50:00,
2013-09-01 16:00:00,82.9,74.2,29.70,NE,41,0.0,0.0,75,0.00,,,0.00,Wunderground v.1.15,2013-09-01 21:00:00,
2013-09-01 16:10:00,82.7,74.0,29.69,NE,41,0.0,0.0,75,0.00,,,0.00,Wunderground v.1.15,2013-09-01 21:10:00,
2013-09-01 16:20:00,82.5,74.6,29.69,NE,40,0.0,0.0,77,0.00,,,0.00,Wunderground v.1.15,2013-09-01 21:20:00,
2013-09-01 16:25:00,82.5,74.9,29.69,NE,40,0.0,0.0,78,0.00,,,0.00,Wunderground v.1.15,2013-09-01 21:25:00,
2013-09-01 16:30:00,82.3,74.4,29.69,NE,40,0.0,0.0,77,0.00,,,0.00,Wunderground v.1.15,2013-09-01 21:30:00,
2013-09-01 16:40:00,82.2,74.3,29.69,NE,40,0.0,0.0,77,0.00,,,0.00,Wunderground v.1.15,2013-09-01 21:40:00,
2013-09-01 16:50:00,81.2,73.7,29.69,NE,40,0.0,0.0,78,0.00,,,0.00,Wunderground v.1.15,2013-09-01 21:50:00,
2013-09-01 17:00:00,80.5,74.1,29.69,NE,40,0.0,0.0,81,0.00,,,0.00,Wunderground v.1.15,2013-09-01 22:00:00,
2013-09-01 17:10:00,79.7,73.0,29.69,NE,40,0.0,0.0,80,0.00,,,0.00,Wunderground v.1.15,2013-09-01 22:10:00,
2013-09-01 17:20:00,79.4,73.1,29.70,NE,40,0.0,0.0,81,0.00,,,0.00,Wunderground v.1.15,2013-09-01 22:20:00,
2013-09-01 17:25:00,79.2,72.9,29.70,NE,40,0.0,0.0,81,0.00,,,0.00,Wunderground v.1.15,2013-09-01 22:25:00,
2013-09-01 17:30:00,79.3,73.3,29.69,NE,40,0.0,0.0,82,0.00,,,0.00,Wunderground v.1.15,2013-09-01 22:30:00,
2013-09-01 17:40:00,79.1,73.1,29.70,NE,40,0.0,0.0,82,0.00,,,0.00,Wunderground v.1.15,2013-09-01 22:40:00,
2013-09-01 17:50:00,78.6,73.0,29.71,NE,40,0.0,0.0,83,0.00,,,0.00,Wunderground v.1.15,2013-09-01 22:50:00,
2013-09-01 17:55:00,78.6,73.0,29.71,NE,40,0.0,0.0,83,0.00,,,0.00,Wunderground v.1.15,2013-09-01 22:55:00,
2013-09-01 18:05:00,78.4,73.2,29.71,NE,40,0.0,0.0,84,0.00,,,0.00,Wunderground v.1.15,2013-09-01 23:05:00,
2013-09-01 18:10:00,77.8,72.2,29.73,West,270,0.0,0.0,83,0.00,,,0.00,Wunderground v.1.15,2013-09-01 23:10:00,
2013-09-01 18:20:00,74.8,68.6,29.72,North,356,1.0,2.0,81,2.01,,,0.07,Wunderground v.1.15,2013-09-01 23:20:00,
2013-09-01 18:30:00,71.4,68.0,29.72,SSW,209,1.0,1.0,89,0.12,,,0.18,Wunderground v.1.15,2013-09-01 23:30:00,
2013-09-01 18:40:00,70.6,68.2,29.73,SSW,209,0.0,0.0,92,0.04,,,0.18,Wunderground v.1.15,2013-09-01 23:40:00,
2013-09-01 18:50:00,70.2,68.4,29.73,SSW,209,0.0,0.0,94,0.00,,,0.18,Wunderground v.1.15,2013-09-01 23:50:00,
2013-09-01 18:55:00,70.1,68.3,29.72,SSW,209,0.0,0.0,94,0.00,,,0.18,Wunderground v.1.15,2013-09-01 23:55:00,
2013-09-01 19:00:00,70.1,68.3,29.72,SSW,209,0.0,0.0,94,0.00,,,0.18,Wunderground v.1.15,2013-09-02 00:00:00,
2013-09-01 19:10:00,70.2,68.7,29.72,SSW,209,0.0,0.0,95,0.00,,,0.18,Wunderground v.1.15,2013-09-02 00:10:00,
2013-09-01 19:20:00,70.2,69.0,29.72,SSW,209,0.0,0.0,96,0.00,,,0.18,Wunderground v.1.15,2013-09-02 00:20:00,
2013-09-01 19:30:00,69.8,68.3,29.73,SSW,209,0.0,0.0,95,0.00,,,0.18,Wunderground v.1.15,2013-09-02 00:30:00,
2013-09-01 19:40:00,69.6,68.4,29.73,SSW,209,0.0,0.0,96,0.00,,,0.18,Wunderground v.1.15,2013-09-02 00:40:00,
2013-09-01 19:50:00,69.4,68.2,29.74,SSW,209,0.0,0.0,96,0.00,,,0.18,Wunderground v.1.15,2013-09-02 00:50:00,
2013-09-01 19:55:00,69.2,68.0,29.74,SSW,209,0.0,0.0,96,0.00,,,0.18,Wunderground v.1.15,2013-09-02 00:55:00,
2013-09-01 20:00:00,69.1,67.9,29.74,SSW,209,0.0,0.0,96,0.00,,,0.18,Wunderground v.1.15,2013-09-02 01:00:00,
2013-09-01 20:10:00,68.8,67.6,29.75,SSW,209,0.0,0.0,96,0.00,,,0.18,Wunderground v.1.15,2013-09-02 01:10:00,
2013-09-01 20:20:00,68.7,67.5,29.75,SSW,209,0.0,0.0,96,0.00,,,0.18,Wunderground v.1.15,2013-09-02 01:20:00,
2013-09-01 20:25:00,68.6,67.4,29.75,SSW,209,0.0,0.0,96,0.00,,,0.18,Wunderground v.1.15,2013-09-02 01:25:00,
2013-09-01 20:35:00,68.6,67.7,29.75,SSW,209,0.0,0.0,97,0.00,,,0.18,Wunderground v.1.15,2013-09-02 01:35:00,
2013-09-01 20:40:00,68.5,67.6,29.76,SSW,209,0.0,0.0,97,0.00,,,0.18,Wunderground v.1.15,2013-09-02 01:40:00,
2013-09-01 20:50:00,68.1,66.9,29.76,SSW,209,0.0,0.0,96,0.00,,,0.18,Wunderground v.1.15,2013-09-02 01:50:00,
2013-09-01 21:00:00,68.3,67.4,29.77,SSW,209,0.0,0.0,97,0.00,,,0.18,Wunderground v.1.15,2013-09-02 02:00:00,
2013-09-01 21:10:00,68.1,67.2,29.78,SSW,209,0.0,0.0,97,0.00,,,0.18,Wunderground v.1.15,2013-09-02 02:10:00,
2013-09-01 21:20:00,67.9,67.0,29.78,SSW,209,0.0,0.0,97,0.00,,,0.18,Wunderground v.1.15,2013-09-02 02:20:00,
2013-09-01 21:30:00,67.7,66.8,29.79,SSW,209,0.0,0.0,97,0.00,,,0.18,Wunderground v.1.15,2013-09-02 02:30:00,
2013-09-01 21:40:00,67.3,66.4,29.79,SSW,209,0.0,0.0,97,0.00,,,0.18,Wunderground v.1.15,2013-09-02 02:40:00,
2013-09-01 21:50:00,67.1,66.2,29.79,SSW,209,0.0,0.0,97,0.00,,,0.18,Wunderground v.1.15,2013-09-02 02:50:00,
2013-09-01 21:55:00,67.0,66.1,29.79,SSW,209,0.0,0.0,97,0.00,,,0.18,Wunderground v.1.15,2013-09-02 02:55:00,
2013-09-01 22:05:00,66.8,65.9,29.79,SSW,209,0.0,0.0,97,0.00,,,0.18,Wunderground v.1.15,2013-09-02 03:05:00,
2013-09-01 22:10:00,66.7,65.8,29.79,SSW,209,0.0,0.0,97,0.00,,,0.18,Wunderground v.1.15,2013-09-02 03:10:00,
2013-09-01 22:20:00,66.5,65.6,29.79,SSW,209,0.0,0.0,97,0.00,,,0.18,Wunderground v.1.15,2013-09-02 03:20:00,
2013-09-01 22:30:00,66.3,65.4,29.79,SSW,209,0.0,0.0,97,0.00,,,0.18,Wunderground v.1.15,2013-09-02 03:30:00,
2013-09-01 22:40:00,66.1,65.2,29.79,SSW,209,0.0,0.0,97,0.00,,,0.18,Wunderground v.1.15,2013-09-02 03:40:00,
2013-09-01 22:50:00,66.1,65.2,29.79,SSW,209,0.0,0.0,97,0.00,,,0.18,Wunderground v.1.15,2013-09-02 03:50:00,
2013-09-01 22:55:00,66.0,65.1,29.79,SSW,209,0.0,0.0,97,0.00,,,0.18,Wunderground v.1.15,2013-09-02 03:55:00,
2013-09-01 23:00:00,65.9,65.0,29.79,SSW,209,0.0,0.0,97,0.00,,,0.18,Wunderground v.1.15,2013-09-02 04:00:00,
2013-09-01 23:05:00,65.8,64.9,29.79,SSW,209,0.0,0.0,97,0.00,,,0.18,Wunderground v.1.15,2013-09-02 04:05:00,
2013-09-01 23:10:00,65.8,64.9,29.79,SSW,209,0.0,0.0,97,0.00,,,0.18,Wunderground v.1.15,2013-09-02 04:10:00,
2013-09-01 23:15:00,65.6,64.7,29.79,SSW,209,0.0,0.0,97,0.00,,,0.18,Wunderground v.1.15,2013-09-02 04:15:00,
2013-09-01 23:20:00,65.5,64.6,29.80,SSW,209,0.0,0.0,97,0.00,,,0.18,Wunderground v.1.15,2013-09-02 04:20:00,
2013-09-01 23:25:00,65.4,64.5,29.79,SSW,209,0.0,0.0,97,0.00,,,0.18,Wunderground v.1.15,2013-09-02 04:25:00,
2013-09-01 23:30:00,65.2,64.3,29.79,SSW,209,0.0,0.0,97,0.00,,,0.18,Wunderground v.1.15,2013-09-02 04:30:00,
2013-09-01 23:40:00,64.9,64.0,29.79,SSW,209,0.0,0.0,97,0.00,,,0.18,Wunderground v.1.15,2013-09-02 04:40:00,
2013-09-01 23:50:00,64.6,63.7,29.79,SSW,209,0.0,0.0,97,0.00,,,0.18,Wunderground v.1.15,2013-09-02 04:50:00,
2013-09-01 23:55:00,64.5,63.6,29.79,SSW,209,0.0,0.0,97,0.00,,,0.18,Wunderground v.1.15,2013-09-02 04:55:00,